ATLAS 5 CENTAUR DEB, 49341

Orbit data source: Space-Track

ATLAS 5 CENTAUR DEB, 49341 is space debris in HEO originally from a launch on Wed, 17 Oct 2018 UTC launched from the Air Force Eastern Test Range (AFETR). Debris objects in space refer to the collection of defunct objects orbiting the Earth. Examples of debris include non-operational satellites, rocket bodies, and fragments generated from explosions, collisions, or faulty payload assembly.

Loading next visibility...
Identifier
49341, 2018-079ES
Orbit
HEO
Country
Flag of USUS
Related business
Flag of USUnited Launch Alliance/Lockheed Martin (US)
Manufacturer
ULA Decatur
Mission
Spacecraft
Bus & Motor
Unknown
Mass
Unknown
Launch date (UTC)
2018-10-17 (7 years ago)
Launch vehicle
Unknown
Launch site
Air Force Eastern Test Range (AFETR)
Object type
Payload
Rocket body
Debris
Shape & HBR
Unknown shape, 1.1 m
Radar Cross Section
Small (<0.1 m²)

Expand to show TLE details & history
Last TLE update: 1 week ago

TLE from 1 week ago
0 ATLAS 5 CENTAUR DEB
1 49341U 18079ES  25288.79817889 -.00000072  00000-0  00000-0 0  9998
2 49341  13.3768  66.1518 4644426 242.5867  63.2143  1.75082066 26420
Epoch: 2025-10-15T19:09Z
TLE epoch observation values (Epoch: 2025-10-15T19:09:22.656Z)
Latitude
Longitude
114.21281°
Altitude
22,615.922 km
Speed
3.713 km/s
True Right ascension
04h 24m 29s
True Declination
0° 00' 00"
Sunlit
Object was in daylight at epoch
Visualization orbit readout
Latitude
Unknown
Longitude
Unknown
Altitude
Unknown
Speed
Unknown
Apparent Right ascension
Unknown
Apparent Declination
Unknown
Sunlit
N/A
Visualization observer readout
Local Sidereal Time
08:33:54
Azimuth
Unknown
Elevation
Unknown
Doppler factor
Unknown
Orbital elements
Apogee altitude
36,208.823 km
Perigee altitude
9,196.227 km
Semi-major axis
29,080.662 km
Eccentricity
0.46444
Inclination
13.3768°
RAAN
66.1518°
Arg. of periapsis
242.5867°
True anomaly
117.51887°
Mean anomaly
63.2143°
Eccentric anomaly
89.82478°
Mean motion
0.43766 °/min
Orbital period
822.56 mins
BSTAR
0
Loading maneuver chart data...
Computing Atmospheric mass density...

Documentation

Showing up to 5 results
|